Regional Weather Roundup
Issued by NWS

Home | Current Version | Previous Version | Graphics & Text | Print | Product List | Glossary On
Versions: 1 2 3 4 5 6 7 8 9 10 11 12 13 14 15 16 17 18 19 20 21 22 23 24 25 26 27 28 29 30 31 32 33 34 35 36 37 38 39 40 41 42 43 44 45 46 47 48 49 50
000
ASUS43 KMKX 030200
RWRWI

WISCONSIN REGIONAL WEATHER ROUNDUP
NATIONAL WEATHER SERVICE MILWAUKEE/SULLIVAN WI
900 PM CDT WED SEP 02 2015

NOTE: "FAIR" INDICATES FEW OR NO CLOUDS BELOW 12,000 FEET WITH NO
SIGNIFICANT WEATHER AND/OR OBSTRUCTIONS TO VISIBILITY.

WIZ001-002-006>008-014>016-023>028-030300-
NORTHWEST WISCONSIN

CITY           SKY/WX    TMP DP  RH WIND       PRES   REMARKS
SUPERIOR ARPT  CLEAR     59  58  97 NE5       29.95R
ASHLAND        PTCLDY    61  61 100 N3        29.97R
HAYWARD        MOCLDY    68  65  90 N6        29.96R
SIREN          CLOUDY    71  67  89 CALM      29.94R
CUMBERLAND     PTCLDY    64  63  94 CALM      29.94R
RICE LAKE      CLOUDY    67  65  92 CALM      29.95R
CHETEK         CLOUDY   N/A N/A N/A MISG      29.93R
LADYSMITH      CLOUDY    69  67  93 NE6       29.96R
EAU CLAIRE     MOCLDY    69  67  93 NE6       29.91R
MENOMONIE      PTCLDY    70  68  94 CALM      29.91R
NEW RICHMOND   PTCLDY    68  67  96 NE5       29.92R
OSCEOLA        CLOUDY    69  69 100 E5        29.94S
$$

WIZ003>005-009-010-017-018-030300-
NORTH CENTRAL WISCONSIN

CITY           SKY/WX    TMP DP  RH WIND       PRES   REMARKS
MANITOWISH WTR DRIZZLE   65  65 100 E6        29.98S
ARBOR VITAE    CLOUDY    67  65  94 E5        29.98S
WOODRUFF       CLOUDY    67  65  94 E5        29.98S
RHINELANDER    CLOUDY    69  67  93 N5        29.98R
EAGLE RIVER    RAIN      65  65 100 NE10      29.99R
LAND O LAKES   DRIZZLE   66  65  98 E6        30.00S
PHILLIPS       CLOUDY    67  66  97 E5        29.96S
TOMAHAWK       CLOUDY    67  66  94 NE3       29.97R
MEDFORD        CLOUDY    67  67  99 NE3       29.95R
MERRILL        LGT RAIN  68  68 100 NE3       29.95S
$$

WIZ029-030-035-036-043>047-030300-
CENTRAL WISCONSIN

CITY           SKY/WX    TMP DP  RH WIND       PRES   REMARKS
WAUSAU         CLOUDY    69  67  93 E3        29.92R
MOSINEE        CLOUDY    68  68 100 E3        29.94R
MARSHFIELD     MOCLDY    72  66  81 E3        29.93R
STEVENS POINT  CLOUDY    69  67  93 CALM      29.94R
WAUPACA        MOCLDY    78  67  67 CALM      29.92R HX  80
WAUTOMA        NOT AVBL
WISC RAPIDS    CLOUDY    76  68  76 CALM      29.93R
CAMP DOUGLAS   NOT AVBL
$$

WIZ011>013-019>022-031-037>040-048>050-030300-
NORTHEAST WISCONSIN

CITY           SKY/WX    TMP DP  RH WIND       PRES   REMARKS
ANTIGO         CLOUDY    68  67  99 SE5       29.96R
SHAWANO        CLOUDY    71  67  87 NW3       29.94R
OCONTO         PTCLDY    66  66 100 E5        29.92S
STURGEON BAY   PTCLDY    66  63  88 E8        29.97R
GREEN BAY      PTCLDY    71  68  90 SE3       29.92S
MANITOWOC      NOT AVBL
APPLETON       MOCLDY    77  66  69 S8        29.92R
CLINTONVILLE   RAIN      70  66  88 N7        29.93R
OSHKOSH        CLOUDY    74  68  81 S5        29.93R
$$

WIZ032>034-041-042-053>061-030300-
SOUTHWEST WISCONSIN

CITY           SKY/WX    TMP DP  RH WIND       PRES   REMARKS
LA CROSSE      CLEAR     78  70  76 S7        29.88R HX  80
SPARTA         CLEAR     76  67  73 CALM      29.91R
VIROQUA          N/A     73  69  86 S6        29.93R
BOSCOBEL       CLEAR     76  70  82 SW3       29.91R
PRAIRIE DU CHI MOCLDY    78  67  68 S5        29.90R HX  80
PLATTEVILLE    CLEAR     73  71  91 S7        29.95R
$$

WIZ056-057-062-063-064-067-068-030300-
SOUTH CENTRAL WISCONSIN

CITY           SKY/WX    TMP DP  RH WIND       PRES   REMARKS
REEDSBURG      CLEAR     76  69  79 S8        29.91R
BARABOO/DELLS  CLEAR     75  66  75 SW3       29.92R
LONE ROCK      NOT AVBL
MINERAL POINT  MOCLDY    79  70  73 SW8       29.94S HX  81
MADISON        CLOUDY    80  68  66 S7        29.93R HX  83
MIDDLETON      CLOUDY    79  69  70 SW5       29.93R HX  81
WATERTOWN      MOCLDY    75  70  84 S3        29.93R
MONROE         MOCLDY    75  68  78 SW8       29.94S
JANESVILLE     CLOUDY    79  68  69 S5        29.93S HX  81
$$

WIZ051-052-058>065-066-070>072-030300-
SOUTHEAST WISCONSIN

CITY           SKY/WX    TMP DP  RH WIND       PRES   REMARKS
MILWAUKEE      PTCLDY    79  70  74 S5        29.94R HX  82
WAUKESHA       CLEAR     75  66  73 SW3       29.96R
MILWAUKEE/TIMM CLEAR     79  66  65 CALM      29.95R HX  81
RACINE         PTCLDY    77  69  76 S3        29.96R
BURLINGTON     CLEAR     71  69  94 CALM      29.94S
KENOSHA        PTCLDY    78  71  79 S6        29.95R HX  80
FOND DU LAC    MOCLDY    73  69  87 S3        29.93R
SHEBOYGAN      CLEAR     70  66  87 SW3       29.94R
WEST BEND      CLEAR     73  66  78 CALM      29.94R
JUNEAU         PTCLDY    74  68  79 S5        29.95R
$$

LSZ147-162-030300-
LAKE SUPERIOR

STATION/POSITION TIME  TEMP    WIND        PRES    WAVE
                       AIR SEA DIR/SP/G            HT/PER
                 (UTC) (F)     (DEG/KT/KT) (MB)    (FT/S)
W MID LAKE BUOY  0050   59 56   30/  6/  8 1014.2R   0
DEVILS ISLAND    0100   59      90/  8/  9 1014.5R
PORT WING        0100   62      20/  8/  9 1013.9S
SAXON HARBOR     0140   63      CALM  /  3 1014.2R
$$

LMZ867-665-643>646-030300-
LAKE MICHIGAN

STATION/POSITION TIME  TEMP    WIND        PRES    WAVE
                       AIR SEA DIR/SP/G            HT/PER
                 (UTC) (F)     (DEG/KT/KT) (MB)    (FT/S)
CHAMBERS ISLAND  0100   68      80/  5/  7 1013.5R
S GREEN BAY BUOY 0130   69 67   80/  6/  8 1015.1R
N MID LAKE BUOY  0050   68 66   80/  6/  8 1013.4S   1
NORTHPORT PIER   0100   68      90/  3/  7 1013.9S
SISTER BAY       0104   68     130/  7/ 10   N/A
ALGOMA LAKESHORE 0114           70/  8/ 10   N/A
KEWAUNEE LAKESHO 0100           30/  5/  7 1012.7R
SHEBOYGAN LAKESH 0100   72     190/ 10/ 11 1012.5S
PORT WASHINGTON  0100   64     170/  2/  2 1013.5
ATWATER BUOY     0100   61     150/  6/  8 1014.7F
MILWAUKEE LAKESH 0110   66     170/  2/  3   N/A
S MID LAKE BUOY  0150   74 72  160/ 10/ 10 1013.7R   0
KENOSHA   LAKESH 0100   71     180/ 10/ 11 1013.5S
$$

TC  - TEMPERATURE IN CELSIUS
VSB - VISIBILITY IN STATUTE MILES
WCI - WIND CHILL INDEX
HX  - HEAT INDEX



USA.gov is the U.S. government's official web portal to all federal, state and local government web resources and services.